N108MS KVNY-KLAX

Flight info

Callsign N108MS
Flight time 0h 13m
Altitude 5000
Route VNY V186 PURMS
Aircraft B737/M-SDE2E3FGHIRWXY/LB1

Departure

Time 2026-04-26 02:10
Airport Van Nuys Airport (KVNY)

Arrival

Time 2026-04-26 02:23
Airport Los Angeles International Airport (KLAX)
Time Latitude Longitude Altitude Speed Heading
2026-04-26 01:51 34.20596 -118.48735 810 ft 0 kts 360°
2026-04-26 02:03 34.20598 -118.48738 810 ft 1 kts 318°
2026-04-26 02:03 34.20591 -118.48753 810 ft 5 kts 224°
2026-04-26 02:03 34.20568 -118.48770 810 ft 4 kts 245°
2026-04-26 02:03 34.20567 -118.48778 810 ft 0 kts 261°
2026-04-26 02:04 34.20567 -118.48780 810 ft 1 kts 262°
2026-04-26 02:04 34.20585 -118.48831 810 ft 10 kts 339°
2026-04-26 02:05 34.20691 -118.48828 810 ft 18 kts
2026-04-26 02:05 34.20818 -118.48820 810 ft 18 kts 359°
2026-04-26 02:05 34.20943 -118.48829 810 ft 18 kts 352°
2026-04-26 02:05 34.21062 -118.48845 810 ft 17 kts 353°
2026-04-26 02:06 34.21178 -118.48853 810 ft 16 kts 355°
2026-04-26 02:06 34.21296 -118.48865 810 ft 19 kts 355°
2026-04-26 02:06 34.21435 -118.48877 810 ft 20 kts 355°
2026-04-26 02:06 34.21572 -118.48896 810 ft 19 kts 349°
2026-04-26 02:07 34.21702 -118.48931 810 ft 19 kts 352°
2026-04-26 02:07 34.21829 -118.48945 810 ft 16 kts 354°
2026-04-26 02:07 34.21873 -118.48950 810 ft 0 kts 354°
2026-04-26 02:08 34.21874 -118.48950 810 ft 1 kts 354°
2026-04-26 02:09 34.21890 -118.49028 810 ft 15 kts 264°
2026-04-26 02:09 34.21861 -118.49126 810 ft 10 kts 186°
2026-04-26 02:09 34.21720 -118.49110 810 ft 53 kts 175°
2026-04-26 02:09 34.21032 -118.49042 827 ft 139 kts 173°
2026-04-26 02:10 34.19980 -118.48931 1577 ft 156 kts 175°
2026-04-26 02:10 34.18890 -118.48817 2579 ft 168 kts 171°
2026-04-26 02:10 34.17807 -118.48131 3464 ft 195 kts 135°
2026-04-26 02:10 34.16927 -118.46757 4264 ft 219 kts 128°
2026-04-26 02:11 34.16146 -118.45071 5043 ft 247 kts 110°
2026-04-26 02:11 34.15879 -118.42881 5285 ft 283 kts 85°
2026-04-26 02:11 34.16469 -118.40613 5870 ft 286 kts 64°
2026-04-26 02:11 34.17339 -118.38456 5963 ft 288 kts 63°
2026-04-26 02:12 34.17928 -118.36168 5989 ft 285 kts 86°
2026-04-26 02:12 34.17763 -118.33861 5995 ft 279 kts 108°
2026-04-26 02:12 34.17105 -118.31627 5997 ft 280 kts 113°
2026-04-26 02:12 34.16408 -118.29425 5994 ft 282 kts 114°
2026-04-26 02:13 34.15716 -118.27208 5990 ft 283 kts 113°
2026-04-26 02:13 34.15018 -118.24982 5991 ft 283 kts 113°
2026-04-26 02:13 34.14325 -118.22788 5985 ft 283 kts 114°
2026-04-26 02:13 34.13624 -118.20575 5991 ft 283 kts 113°
2026-04-26 02:14 34.12916 -118.18351 5983 ft 283 kts 113°
2026-04-26 02:14 34.12211 -118.16140 5982 ft 282 kts 114°
2026-04-26 02:14 34.11511 -118.13936 5984 ft 281 kts 113°
2026-04-26 02:14 34.10810 -118.11737 5990 ft 280 kts 113°
2026-04-26 02:15 34.10115 -118.09542 5981 ft 279 kts 114°
2026-04-26 02:15 34.09428 -118.07354 5980 ft 279 kts 113°
2026-04-26 02:15 34.08970 -118.05902 5972 ft 279 kts 113°
2026-04-26 02:15 34.08154 -118.03514 5996 ft 275 kts 124°
2026-04-26 02:16 34.06854 -118.01851 5784 ft 276 kts 150°
2026-04-26 02:16 34.05088 -118.01020 5554 ft 272 kts 168°
2026-04-26 02:16 34.03262 -118.00538 5300 ft 267 kts 171°
2026-04-26 02:16 34.01439 -118.00316 5026 ft 260 kts 189°
2026-04-26 02:17 33.99793 -118.01076 4774 ft 255 kts 217°
2026-04-26 02:17 33.98593 -118.02526 4562 ft 254 kts 229°
2026-04-26 02:17 33.97542 -118.04233 4285 ft 255 kts 243°
2026-04-26 02:17 33.96960 -118.06248 4033 ft 255 kts 257°
2026-04-26 02:18 33.96689 -118.08355 3787 ft 255 kts 262°
2026-04-26 02:18 33.96501 -118.10469 3639 ft 253 kts 263°
2026-04-26 02:18 33.96355 -118.12599 3607 ft 256 kts 264°
2026-04-26 02:18 33.96184 -118.14725 3590 ft 254 kts 263°
2026-04-26 02:19 33.95979 -118.16773 3544 ft 239 kts 262°
2026-04-26 02:19 33.95777 -118.18724 3322 ft 231 kts 262°
2026-04-26 02:19 33.95569 -118.20603 3031 ft 223 kts 262°
2026-04-26 02:19 33.95380 -118.22416 2744 ft 213 kts 262°
2026-04-26 02:20 33.95201 -118.24159 2461 ft 208 kts 262°
2026-04-26 02:20 33.95026 -118.25848 2173 ft 197 kts 262°
2026-04-26 02:20 33.94863 -118.27421 1907 ft 181 kts 262°
2026-04-26 02:20 33.94715 -118.28843 1683 ft 163 kts 263°
2026-04-26 02:21 33.94582 -118.30127 1497 ft 143 kts 263°
2026-04-26 02:21 33.94466 -118.31237 1279 ft 125 kts 264°
2026-04-26 02:21 33.94368 -118.32228 1126 ft 115 kts 260°
2026-04-26 02:21 33.94253 -118.33199 967 ft 119 kts 263°
2026-04-26 02:22 33.94159 -118.34178 808 ft 117 kts 266°
2026-04-26 02:22 33.94041 -118.35154 646 ft 119 kts 258°
2026-04-26 02:22 33.93965 -118.36143 481 ft 118 kts 264°
2026-04-26 02:22 33.93852 -118.37116 321 ft 118 kts 262°
2026-04-26 02:23 33.93755 -118.38076 168 ft 116 kts 261°
2026-04-26 02:23 33.93665 -118.38972 95 ft 98 kts 263°
2026-04-26 02:23 33.93613 -118.39481 93 ft 43 kts 263°
2026-04-26 02:23 33.93579 -118.39815 96 ft 38 kts 262°
2026-04-26 02:24 33.93526 -118.40100 94 ft 34 kts 250°
2026-04-26 02:24 33.93451 -118.40205 92 ft 5 kts 143°
2026-04-26 02:24 33.93427 -118.40172 92 ft 5 kts 126°
2026-04-26 02:24 33.93424 -118.40129 92 ft 6 kts 82°
2026-04-26 02:25 33.93431 -118.40064 92 ft 9 kts 83°
2026-04-26 02:25 33.93438 -118.39991 94 ft 10 kts 83°
2026-04-26 02:25 33.93449 -118.39887 92 ft 14 kts 83°
2026-04-26 02:25 33.93426 -118.39814 95 ft 10 kts 164°
2026-04-26 02:26 33.93363 -118.39787 94 ft 10 kts 127°
2026-04-26 02:26 33.93326 -118.39720 93 ft 10 kts 143°
2026-04-26 02:26 33.93304 -118.39732 92 ft 0 kts 263°